| time (UTC) | temp F | wind direction | speed MPH | gust MPH | rain 1hr in | rain 24hr in | rain mn in | humidity % | barometer mb |
| 20260509161523 | 81 | 314 | 0.0 | 2.0 | 0.00 | 0.00 | 0.00 | 60 | 1009.4 |
| 20260509160022 | 81 | 325 | 1.0 | 2.0 | 0.00 | 0.00 | 0.00 | 62 | 1009.4 |
| 20260509154515 | 79 | 304 | 0.0 | 2.0 | 0.00 | 0.00 | 0.00 | 67 | 1009.3 |
| 20260509153015 | 79 | 302 | 0.0 | 3.0 | 0.00 | 0.00 | 0.00 | 66 | 1009.3 |
| 20260509151509 | 79 | 321 | 0.0 | 2.0 | 0.00 | 0.00 | 0.00 | 67 | 1009.3 |
| 20260509150006 | 77 | 339 | 0.0 | 2.0 | 0.00 | 0.00 | 0.00 | 67 | 1009.4 |
| 20260509144503 | 77 | 325 | 0.0 | 2.0 | 0.00 | 0.00 | 0.00 | 71 | 1009.6 |
| 20260509143100 | 75 | 347 | 0.0 | 0.0 | 0.00 | 0.00 | 0.00 | 76 | 1009.6 |
| 20260509141555 | 75 | 143 | 0.0 | 4.0 | 0.00 | 0.00 | 0.00 | 79 | 1009.6 |
| 20260509140051 | 73 | 259 | 0.0 | 3.0 | 0.00 | 0.00 | 0.00 | 82 | 1009.5 |
| 20260509134546 | 72 | 320 | 0.0 | 0.0 | 0.00 | 0.00 | 0.00 | 84 | 1009.3 |
| 20260509133044 | 70 | 329 | 0.0 | 0.0 | 0.00 | 0.00 | 0.00 | 85 | 1009.2 |
| 20260509131543 | 70 | 330 | 0.0 | 0.0 | 0.00 | 0.00 | 0.00 | 85 | 1009.2 |
| 20260509130046 | 70 | 344 | 0.0 | 0.0 | 0.00 | 0.00 | 0.00 | 86 | 1009.1 |
| 20260509124548 | 69 | 323 | 0.0 | 0.0 | 0.00 | 0.00 | 0.00 | 86 | 1009.1 |
| 20260509123039 | 68 | 307 | 0.0 | 2.0 | 0.00 | 0.00 | 0.00 | 87 | 1009.0 |
| 20260509121535 | 68 | 271 | 0.0 | 2.0 | 0.00 | 0.00 | 0.00 | 87 | 1008.9 |
| 20260509120034 | 68 | 266 | 0.0 | 0.0 | 0.00 | 0.00 | 0.00 | 87 | 1008.9 |
| 20260509114531 | 69 | 266 | 0.0 | 1.0 | 0.00 | 0.00 | 0.00 | 86 | 1008.8 |
| 20260509113030 | 70 | 266 | 0.0 | 1.0 | 0.00 | 0.00 | 0.00 | 86 | 1008.6 |
| 20260509111528 | 70 | 236 | 0.0 | 0.0 | 0.00 | 0.00 | 0.00 | 86 | 1008.3 |
| 20260509110028 | 69 | 236 | 0.0 | 1.0 | 0.00 | 0.00 | 0.00 | 86 | 1008.2 |
| 20260509104527 | 70 | 243 | 0.0 | 3.0 | 0.00 | 0.00 | 0.00 | 86 | 1008.2 |
| 20260509103026 | 70 | 241 | 0.0 | 2.0 | 0.00 | 0.00 | 0.00 | 87 | 1008.1 |
| 20260509101533 | 71 | 255 | 0.0 | 1.0 | 0.00 | 0.00 | 0.00 | 87 | 1008.1 |
| 20260509100026 | 71 | 261 | 0.0 | 2.0 | 0.00 | 0.00 | 0.00 | 87 | 1008.2 |
| 20260509094523 | 70 | 355 | 0.0 | 6.0 | 0.00 | 0.00 | 0.00 | 87 | 1007.0 |
| 20260509093024 | 70 | 155 | 2.0 | 10.0 | 0.00 | 0.00 | 0.00 | 87 | 1005.7 |
| 20260509091522 | 70 | 199 | 3.0 | 11.0 | 0.00 | 0.00 | 0.00 | 87 | 1005.6 |
| 20260509090034 | 71 | 119 | 2.0 | 8.0 | 0.00 | 0.00 | 0.00 | 87 | 1005.9 |
| 20260509084519 | 70 | 199 | 1.0 | 13.0 | 0.00 | 0.00 | 0.00 | 87 | 1005.8 |
| 20260509083030 | 70 | 155 | 4.0 | 12.0 | 0.00 | 0.00 | 0.00 | 87 | 1006.1 |
| 20260509081512 | 69 | 167 | 3.0 | 10.0 | 0.00 | 0.00 | 0.00 | 88 | 1007.0 |
| 20260509080009 | 69 | 161 | 0.0 | 6.0 | 0.00 | 0.00 | 0.00 | 87 | 1008.0 |
| 20260509074506 | 70 | 217 | 0.0 | 3.0 | 0.00 | 0.00 | 0.00 | 87 | 1008.7 |
| 20260509073004 | 70 | 224 | 0.0 | 1.0 | 0.00 | 0.00 | 0.00 | 87 | 1009.3 |
| 20260509071503 | 70 | 246 | 0.0 | 5.0 | 0.00 | 0.00 | 0.00 | 87 | 1009.8 |
| 20260509070003 | 70 | 261 | 0.0 | 4.0 | 0.00 | 0.00 | 0.00 | 87 | 1010.4 |
| 20260509064502 | 69 | 260 | 1.0 | 2.0 | 0.00 | 0.00 | 0.00 | 87 | 1010.0 |
| 20260509063000 | 70 | 153 | 0.0 | 1.0 | 0.00 | 0.00 | 0.00 | 87 | 1009.8 |
| 20260509061603 | 70 | 153 | 0.0 | 0.0 | 0.00 | 0.00 | 0.00 | 87 | 1010.0 |
| 20260509060110 | 70 | 153 | 0.0 | 0.0 | 0.00 | 0.00 | 0.00 | 87 | 1010.1 |
| 20260509054606 | 70 | 153 | 0.0 | 0.0 | 0.00 | 0.00 | 0.00 | 87 | 1010.2 |
| 20260509053128 | 69 | 153 | 0.0 | 1.0 | 0.00 | 0.00 | 0.00 | 87 | 1010.0 |
| 20260509051555 | 69 | 153 | 0.0 | 0.0 | 0.00 | 0.00 | 0.00 | 87 | 1009.1 |
| 20260509050051 | 70 | 153 | 0.0 | 0.0 | 0.00 | 0.00 | 0.00 | 87 | 1009.1 |
| 20260509044623 | 70 | 147 | 0.0 | 1.0 | 0.00 | 0.00 | 0.00 | 86 | 1009.0 |
| 20260509043122 | 71 | 165 | 0.0 | 2.0 | 0.00 | 0.00 | 0.00 | 86 | 1009.2 |
| 20260509041549 | 71 | 127 | 0.0 | 0.0 | 0.00 | 0.00 | 0.00 | 86 | 1009.5 |
| 20260509040048 | 71 | 22 | 0.0 | 0.0 | 0.00 | 0.00 | 0.00 | 85 | 1009.6 |
| 20260509034549 | 71 | 22 | 0.0 | 3.0 | 0.00 | 0.00 | 0.00 | 85 | 1009.2 |
| 20260509033047 | 72 | 148 | 0.0 | 3.0 | 0.00 | 0.00 | 0.00 | 84 | 1008.8 |
| 20260509031556 | 72 | 140 | 0.0 | 3.0 | 0.00 | 0.00 | 0.00 | 84 | 1008.4 |
| 20260509030104 | 72 | 149 | 0.0 | 3.0 | 0.00 | 0.00 | 0.00 | 83 | 1008.3 |
| 20260509024545 | 73 | 137 | 0.0 | 3.0 | 0.00 | 0.00 | 0.00 | 82 | 1008.0 |
| 20260509023044 | 73 | 130 | 2.0 | 5.0 | 0.00 | 0.00 | 0.00 | 82 | 1007.7 |
| 20260509021544 | 73 | 148 | 0.0 | 2.0 | 0.00 | 0.00 | 0.00 | 82 | 1007.8 |
| 20260509020043 | 73 | 136 | 0.0 | 0.0 | 0.00 | 0.00 | 0.00 | 82 | 1007.9 |
| 20260509014542 | 73 | 123 | 0.0 | 0.0 | 0.00 | 0.00 | 0.00 | 82 | 1007.9 |
| 20260509013043 | 72 | 148 | 0.0 | 1.0 | 0.00 | 0.00 | 0.00 | 82 | 1007.9 |
| 20260509011541 | 73 | 174 | 0.0 | 3.0 | 0.00 | 0.00 | 0.00 | 81 | 1007.7 |
| 20260509010041 | 73 | 144 | 0.0 | 3.0 | 0.00 | 0.00 | 0.00 | 82 | 1007.5 |
| 20260509004552 | 73 | 154 | 0.0 | 3.0 | 0.00 | 0.00 | 0.00 | 81 | 1007.2 |
| 20260509003050 | 73 | 173 | 0.0 | 2.0 | 0.00 | 0.00 | 0.00 | 80 | 1007.0 |
| 20260509001538 | 73 | 129 | 0.0 | 2.0 | 0.00 | 0.00 | 0.00 | 80 | 1007.3 |
| 20260509000036 | 73 | 163 | 0.0 | 4.0 | 0.00 | 0.00 | 0.00 | 79 | 1007.3 |
| 20260508234534 | 73 | 142 | 0.0 | 2.0 | 0.00 | 0.00 | 0.00 | 79 | 1007.6 |
| 20260508233040 | 73 | 124 | 0.0 | 3.0 | 0.00 | 0.00 | 0.00 | 79 | 1007.6 |
| 20260508231534 | 73 | 222 | 1.0 | 5.0 | 0.00 | 0.00 | 0.00 | 78 | 1007.6 |
| 20260508230033 | 73 | 165 | 0.0 | 6.0 | 0.00 | 0.00 | 0.00 | 78 | 1007.5 |
| 20260508224540 | 73 | 182 | 2.0 | 9.0 | 0.00 | 0.00 | 0.00 | 77 | 1007.5 |
| 20260508223045 | 73 | 125 | 1.0 | 7.0 | 0.00 | 0.00 | 0.00 | 76 | 1007.5 |
| 20260508221530 | 72 | 96 | 2.0 | 7.0 | 0.00 | 0.00 | 0.00 | 76 | 1007.7 |
| 20260508220029 | 73 | 146 | 0.0 | 5.0 | 0.00 | 0.00 | 0.00 | 77 | 1007.8 |
| 20260508214529 | 72 | 115 | 2.0 | 7.0 | 0.00 | 0.00 | 0.00 | 75 | 1008.2 |
| 20260508213028 | 70 | 119 | 1.0 | 8.0 | 0.00 | 0.00 | 0.00 | 77 | 1008.4 |
| 20260508211527 | 72 | 184 | 3.0 | 6.0 | 0.00 | 0.00 | 0.00 | 74 | 1008.6 |
| 20260508210030 | 71 | 109 | 0.0 | 5.0 | 0.00 | 0.00 | 0.00 | 76 | 1008.7 |
| 20260508204529 | 69 | 93 | 0.0 | 3.0 | 0.00 | 0.00 | 0.00 | 82 | 1008.7 |
| 20260508203025 | 68 | 69 | 0.0 | 3.0 | 0.00 | 0.00 | 0.00 | 80 | 1008.9 |
| 20260508201522 | 69 | 35 | 0.0 | 3.0 | 0.00 | 0.00 | 0.00 | 76 | 1009.4 |
| 20260508200025 | 71 | 143 | 0.0 | 8.0 | 0.00 | 0.00 | 0.00 | 71 | 1010.4 |
| 20260508194534 | 72 | 196 | 1.0 | 6.0 | 0.00 | 0.00 | 0.00 | 71 | 1010.3 |
| 20260508193021 | 72 | 207 | 1.0 | 7.0 | 0.00 | 0.00 | 0.00 | 70 | 1010.0 |
| 20260508191520 | 73 | 193 | 0.0 | 9.0 | 0.00 | 0.00 | 0.00 | 70 | 1010.2 |
| 20260508190020 | 73 | 206 | 1.0 | 5.0 | 0.00 | 0.00 | 0.00 | 69 | 1010.4 |
| 20260508184521 | 72 | 140 | 2.0 | 5.0 | 0.00 | 0.00 | 0.00 | 69 | 1010.6 |
| 20260508183025 | 72 | 181 | 1.0 | 6.0 | 0.00 | 0.00 | 0.00 | 69 | 1010.7 |
| 20260508181517 | 74 | 34 | 1.0 | 8.0 | 0.00 | 0.00 | 0.00 | 68 | 1010.9 |
| 20260508180016 | 73 | 67 | 1.0 | 5.0 | 0.00 | 0.00 | 0.00 | 68 | 1010.9 |
| 20260508174508 | 73 | 112 | 0.0 | 7.0 | 0.00 | 0.00 | 0.00 | 71 | 1011.3 |
| 20260508173005 | 71 | 91 | 1.0 | 4.0 | 0.00 | 0.00 | 0.00 | 71 | 1011.7 |
| 20260508171503 | 70 | 109 | 1.0 | 4.0 | 0.00 | 0.00 | 0.00 | 71 | 1012.0 |
| 20260508170101 | 72 | 148 | 0.0 | 6.0 | 0.00 | 0.00 | 0.00 | 69 | 1012.1 |
| 20260508164558 | 71 | 167 | 1.0 | 4.0 | 0.00 | 0.00 | 0.00 | 70 | 1012.2 |
| 20260508163055 | 69 | 146 | 0.0 | 5.0 | 0.00 | 0.00 | 0.00 | 73 | 1012.4 |